FW5990 Weather Reports


time (UTC)temp
C
wind
direction
speed
KPH
gust
KPH
rain 1hr
cm
rain 24hr
cm
rain mn
cm
humidity
%
barometer
mb
20260507201559 16 176 4.8 17.7 0.00 0.23 0.08 55 1007.9
20260507201047 16 93 4.8 16.1 0.00 0.23 0.08 57 1007.9
20260507200548 16 221 3.2 14.5 0.00 0.23 0.08 56 1007.8
20260507200057 16 360 4.8 16.1 0.00 0.23 0.08 54 1007.9
20260507195545 17 23 3.2 19.3 0.00 0.23 0.08 52 1007.9
20260507195045 17 25 6.4 11.3 0.00 0.23 0.08 46 1008.0
20260507194545 17 8 1.6 9.7 0.00 0.23 0.08 47 1007.9
20260507194049 17 257 3.2 11.3 0.00 0.23 0.08 46 1008.2
20260507193545 17 134 4.8 12.9 0.00 0.23 0.08 46 1008.2
20260507193048 17 195 3.2 12.9 0.00 0.23 0.08 46 1008.2
20260507192545 17 188 4.8 11.3 0.00 0.23 0.08 44 1008.2
20260507192042 18 232 4.8 11.3 0.00 0.23 0.08 45 1008.2
20260507191542 18 79 1.6 9.7 0.00 0.23 0.08 45 1008.3
20260507191044 18 75 4.8 9.7 0.00 0.23 0.08 42 1008.4
20260507190540 17 19 1.6 4.8 0.00 0.23 0.08 45 1008.5
20260507190040 17 54 0.0 4.8 0.00 0.23 0.08 45 1008.6
20260507185538 17 27 1.6 4.8 0.00 0.23 0.08 45 1008.7
20260507185038 16 221 0.0 8.0 0.00 0.23 0.08 48 1008.7
20260507184538 16 252 1.6 9.7 0.00 0.23 0.08 45 1008.8
20260507184038 17 209 4.8 9.7 0.00 0.23 0.08 45 1008.8
20260507183540 17 115 0.0 9.7 0.00 0.23 0.08 45 1008.7
20260507183040 17 345 3.2 9.7 0.00 0.23 0.08 42 1008.8
20260507182537 17 57 4.8 12.9 0.00 0.23 0.08 43 1008.8
20260507182036 17 158 4.8 12.9 0.00 0.23 0.08 45 1008.9
20260507181537 17 178 6.4 12.9 0.00 0.23 0.08 45 1008.9
20260507181036 18 155 4.8 9.7 0.00 0.23 0.08 40 1008.9
20260507180535 17 56 1.6 9.7 0.00 0.23 0.08 45 1009.0
20260507180035 17 119 4.8 9.7 0.00 0.23 0.08 42 1009.1
20260507175533 17 207 1.6 11.3 0.00 0.23 0.08 44 1009.3
20260507175030 17 47 4.8 9.7 0.00 0.23 0.08 43 1009.2
20260507174529 17 65 3.2 17.7 0.00 0.23 0.08 41 1009.4
20260507174029 17 43 3.2 12.9 0.00 0.23 0.08 45 1009.4
20260507173528 17 85 6.4 12.9 0.00 0.23 0.08 44 1009.6
20260507173026 17 12 3.2 12.9 0.00 0.23 0.08 43 1009.7
20260507172527 16 35 4.8 20.9 0.00 0.23 0.08 44 1009.8
20260507172026 16 89 6.4 20.9 0.00 0.23 0.08 41 1009.7
20260507171525 17 27 4.8 12.9 0.00 0.23 0.08 48 1009.8
20260507171025 16 79 3.2 17.7 0.00 0.23 0.08 46 1009.9
20260507170523 16 109 6.4 17.7 0.00 0.23 0.08 44 1010.0
20260507170022 16 91 4.8 14.5 0.00 0.23 0.08 44 1010.2
20260507165521 16 93 3.2 14.5 0.00 0.23 0.08 44 1010.3
20260507165020 16 358 3.2 12.9 0.00 0.23 0.08 45 1010.3
20260507164518 16 355 4.8 12.9 0.00 0.23 0.08 44 1010.5
20260507164018 15 15 3.2 8.0 0.00 0.23 0.08 46 1010.5
20260507163516 15 326 4.8 8.0 0.00 0.23 0.08 47 1010.5
20260507163016 15 68 4.8 9.7 0.00 0.23 0.08 50 1010.7
20260507162516 15 143 4.8 11.3 0.00 0.23 0.08 51 1010.7
20260507162020 15 49 3.2 11.3 0.00 0.23 0.08 48 1010.8
20260507161518 15 184 4.8 14.5 0.00 0.23 0.08 47 1010.8
20260507161016 15 133 6.4 14.5 0.00 0.23 0.08 47 1011.0
20260507160518 15 23 1.6 11.3 0.00 0.23 0.08 49 1011.1
20260507160013 15 162 6.4 11.3 0.00 0.23 0.08 48 1011.1
20260507155511 14 115 3.2 12.9 0.00 0.23 0.08 49 1011.0
20260507155014 14 121 6.4 16.1 0.00 0.23 0.08 49 1011.3
20260507154511 13 55 4.8 16.1 0.00 0.23 0.08 47 1011.3
20260507154010 13 162 8.0 16.1 0.00 0.23 0.08 48 1011.4
20260507153508 14 37 4.8 12.9 0.00 0.23 0.08 48 1011.3
20260507153007 13 151 1.6 17.7 0.00 0.23 0.08 53 1011.5
20260507152507 13 134 6.4 17.7 0.00 0.23 0.08 50 1011.5
20260507152007 13 108 3.2 11.3 0.00 0.23 0.08 51 1011.4
20260507151508 13 98 4.8 12.9 0.00 0.23 0.08 51 1011.6
20260507151007 13 84 4.8 17.7 0.00 0.23 0.08 52 1011.8
20260507150507 12 76 3.2 17.7 0.00 0.23 0.08 51 1011.8
20260507150007 12 110 4.8 17.7 0.00 0.28 0.08 53 1011.8
20260507145507 12 98 6.4 14.5 0.00 0.28 0.08 49 1011.9
20260507145006 12 78 4.8 14.5 0.00 0.28 0.08 49 1012.0
20260507144504 12 18 3.2 11.3 0.00 0.28 0.08 50 1012.1
20260507144004 12 41 3.2 11.3 0.00 0.28 0.08 52 1012.2
20260507143504 12 59 3.2 9.7 0.00 0.28 0.08 51 1012.2
20260507143005 12 134 3.2 11.3 0.00 0.28 0.08 51 1012.2
20260507142503 12 110 1.6 9.7 0.00 0.28 0.08 54 1012.2
20260507142003 12 79 1.6 12.9 0.00 0.28 0.08 59 1012.2
20260507141503 12 155 4.8 14.5 0.00 0.28 0.08 54 1012.1
20260507141007 11 127 9.7 14.5 0.00 0.28 0.08 54 1012.2
20260507140501 11 83 3.2 16.1 0.00 0.28 0.08 56 1012.3
20260507140002 11 96 6.4 12.9 0.00 0.38 0.08 56 1012.3
20260507135502 11 65 1.6 9.7 0.00 0.38 0.08 58 1012.5
20260507135104 11 94 3.2 9.7 0.00 0.38 0.08 58 1012.5
20260507134613 11 115 3.2 9.7 0.00 0.38 0.08 57 1012.6
20260507134059 11 100 3.2 9.7 0.00 0.38 0.08 57 1012.7
20260507133600 11 91 3.2 9.7 0.00 0.38 0.08 58 1012.9
20260507133100 11 86 4.8 11.3 0.00 0.38 0.08 57 1012.9
20260507132559 11 82 6.4 11.3 0.00 0.38 0.08 58 1012.8
20260507132057 11 34 3.2 9.7 0.00 0.38 0.08 59 1012.8
20260507131557 11 35 1.6 12.9 0.00 0.38 0.08 62 1012.8
20260507131056 11 125 3.2 12.9 0.00 0.38 0.08 62 1012.7
20260507130558 11 101 4.8 17.7 0.00 0.38 0.08 62 1012.6
20260507130108 11 95 4.8 17.7 0.00 0.69 0.08 63 1012.6
20260507125555 11 103 6.4 16.1 0.00 0.69 0.08 62 1012.6
20260507125054 11 108 4.8 14.5 0.00 0.69 0.08 62 1012.7
20260507124618 11 82 3.2 9.7 0.00 0.69 0.08 63 1012.8
20260507124056 11 65 3.2 6.4 0.00 0.69 0.08 64 1012.8
20260507123553 11 137 3.2 6.4 0.00 0.69 0.08 64 1012.7
20260507123106 11 93 1.6 4.8 0.00 0.69 0.08 65 1012.8
20260507122551 11 94 1.6 4.8 0.00 0.69 0.08 65 1012.8
20260507122051 11 101 0.0 4.8 0.00 0.69 0.08 67 1012.7
20260507121558 11 112 0.0 8.0 0.00 0.69 0.08 68 1012.5
20260507121050 11 77 1.6 8.0 0.00 0.69 0.08 66 1012.5
20260507120549 11 97 3.2 8.0 0.00 0.69 0.08 67 1012.5
20260507120049 11 94 3.2 9.7 0.00 0.86 0.08 67 1012.5
20260507115549 11 98 4.8 9.7 0.00 0.86 0.08 68 1012.5
20260507115049 11 123 3.2 6.4 0.00 0.86 0.08 68 1012.6
20260507114551 11 82 0.0 4.8 0.00 0.86 0.08 71 1012.5
20260507114046 11 97 0.0 6.4 0.00 0.86 0.08 70 1012.4
20260507113547 11 89 1.6 6.4 0.00 0.86 0.08 70 1012.3
20260507113045 11 102 3.2 6.4 0.00 0.86 0.08 69 1012.2
20260507112547 11 48 1.6 6.4 0.00 0.86 0.08 71 1012.2
20260507112043 11 115 1.6 9.7 0.00 0.86 0.08 72 1012.0
20260507111542 11 143 3.2 9.7 0.00 0.86 0.08 73 1011.9
20260507111041 11 160 3.2 8.0 0.00 0.86 0.08 75 1011.9
20260507110540 11 91 1.6 6.4 0.00 0.86 0.08 77 1011.9
20260507110041 11 94 0.0 4.8 0.00 0.89 0.08 78 1011.8
20260507105538 11 93 1.6 4.8 0.00 0.89 0.08 78 1012.0
20260507105038 11 59 0.0 3.2 0.00 0.89 0.08 84 1011.9
20260507104538 11 59 0.0 3.2 0.00 0.89 0.08 83 1011.8
20260507104041 11 71 0.0 1.6 0.00 0.89 0.08 83 1011.6
20260507103537 11 71 0.0 1.6 0.00 0.89 0.08 82 1011.6
20260507103037 11 71 0.0 1.6 0.00 0.89 0.08 83 1011.7
20260507102537 11 71 0.0 1.6 0.00 0.89 0.08 82 1011.7
20260507102036 11 71 0.0 1.6 0.00 0.89 0.08 82 1011.6
20260507101541 11 71 0.0 1.6 0.00 0.89 0.08 83 1011.6
20260507101034 11 71 0.0 3.2 0.00 0.89 0.08 81 1011.5
20260507100534 11 71 0.0 9.7 0.00 0.89 0.08 82 1011.5
20260507100047 11 74 0.0 9.7 0.00 0.89 0.08 78 1011.5
20260507095533 11 99 1.6 6.4 0.00 0.89 0.08 78 1011.2
20260507095034 11 99 1.6 9.7 0.00 0.89 0.08 78 1011.3
20260507094533 11 70 1.6 11.3 0.00 0.89 0.08 79 1011.3
20260507094032 11 93 0.0 9.7 0.00 0.89 0.08 78 1011.3
20260507093531 11 94 1.6 6.4 0.00 0.89 0.08 78 1011.2
20260507093032 11 107 0.0 4.8 0.00 0.89 0.08 78 1011.2
20260507092533 11 79 0.0 1.6 0.00 0.89 0.08 80 1011.2
20260507092030 11 78 0.0 1.6 0.00 0.89 0.08 80 1011.2
20260507091530 11 58 0.0 3.2 0.00 0.89 0.08 81 1011.1
20260507091030 11 67 0.0 4.8 0.00 0.89 0.08 81 1011.0
20260507090530 11 89 0.0 4.8 0.00 0.89 0.08 79 1010.9
20260507090032 11 91 0.0 4.8 0.00 0.89 0.08 79 1010.7
20260507085529 11 101 0.0 6.4 0.00 0.89 0.08 79 1010.9
20260507085029 11 82 0.0 6.4 0.00 0.89 0.08 80 1010.9
20260507084529 11 93 1.6 6.4 0.00 0.89 0.08 79 1010.9
20260507084030 11 91 1.6 6.4 0.00 0.89 0.08 79 1011.0
20260507083528 11 102 0.0 3.2 0.00 0.89 0.08 80 1011.0
20260507083030 11 89 0.0 1.6 0.00 0.89 0.08 81 1011.2
20260507082531 11 91 0.0 0.0 0.00 0.89 0.08 79 1011.0
20260507082026 11 91 0.0 1.6 0.00 0.89 0.08 79 1011.0
20260507081527 11 115 0.0 4.8 0.00 0.89 0.08 79 1010.9
20260507081029 11 96 1.6 4.8 0.00 0.89 0.08 78 1010.9
20260507080527 11 67 0.0 0.0 0.00 0.89 0.08 82 1010.7
20260507080026 11 46 0.0 4.8 0.00 0.89 0.08 81 1010.8
20260507075528 11 44 1.6 6.4 0.00 0.89 0.08 79 1010.8
20260507075026 11 91 0.0 6.4 0.00 0.89 0.08 80 1010.7
20260507074525 11 73 0.0 6.4 0.00 0.89 0.08 79 1010.6
20260507074024 11 120 1.6 6.4 0.00 0.89 0.08 81 1010.4
20260507073526 11 69 1.6 9.7 0.00 0.89 0.08 80 1010.2
20260507073025 11 65 1.6 11.3 0.00 0.89 0.08 80 1010.3
20260507072524 11 58 1.6 11.3 0.00 0.89 0.08 82 1010.4
20260507072023 11 53 1.6 9.7 0.00 0.89 0.08 82 1010.4
20260507071523 11 90 1.6 8.0 0.00 0.89 0.08 83 1010.2
20260507071023 11 89 3.2 8.0 0.03 0.89 0.08 82 1010.3
20260507070527 11 117 1.6 12.9 0.03 0.89 0.08 82 1010.3
20260507070032 11 73 1.6 12.9 0.05 0.89 0.08 82 1010.5
20260507065522 11 108 0.0 22.5 0.05 0.89 0.08 82 1010.4
20260507065021 11 200 1.6 12.9 0.05 0.89 0.08 83 1010.5
20260507064533 11 208 1.6 9.7 0.05 0.89 0.08 85 1010.4
20260507064020 11 79 0.0 4.8 0.05 0.89 0.08 86 1010.4
20260507063521 11 82 0.0 4.8 0.05 0.89 0.08 86 1010.3
20260507063027 11 98 0.0 4.8 0.05 0.89 0.08 85 1010.5
20260507062519 11 86 0.0 6.4 0.05 0.89 0.08 85 1010.4
20260507062018 11 91 1.6 6.4 0.05 0.89 0.08 84 1010.6
20260507061517 12 84 0.0 11.3 0.05 0.89 0.08 84 1010.6
20260507061020 12 143 1.6 12.9 0.03 0.86 0.05 83 1010.7
20260507060520 12 108 3.2 9.7 0.00 0.84 0.03 83 1011.0
20260507060019 12 122 1.6 6.4 0.03 0.84 0.03 85 1010.8
20260507055513 12 65 0.0 3.2 0.03 0.84 0.03 86 1010.7
20260507055014 12 88 0.0 3.2 0.03 0.84 0.03 85 1010.5
20260507054512 12 82 0.0 4.8 0.03 0.84 0.03 84 1010.4
20260507054011 12 130 0.0 4.8 0.03 0.84 0.03 84 1010.6
20260507053511 12 91 1.6 4.8 0.03 0.84 0.03 85 1010.7
20260507053010 12 119 0.0 4.8 0.03 0.84 0.03 85 1010.6
20260507052511 12 124 0.0 9.7 0.03 0.84 0.03 83 1010.6
20260507052010 12 89 3.2 9.7 0.03 0.84 0.03 83 1010.5
20260507051509 13 129 1.6 12.9 0.03 0.84 0.03 83 1010.6
20260507051008 13 106 6.4 12.9 0.03 0.84 0.03 82 1010.4
20260507050506 13 109 1.6 9.7 0.03 0.84 0.03 82 1010.7
20260507050007 13 127 1.6 9.7 0.00 0.81 0.00 81 1010.6
20260507045505 13 96 1.6 9.7 0.00 0.81 0.00 81 1010.7
20260507045005 13 169 1.6 8.0 0.00 0.81 0.00 81 1010.2
20260507044504 13 65 1.6 9.7 0.00 0.81 0.00 81 1010.1
20260507044003 13 125 1.6 8.0 0.00 0.81 0.00 80 1009.6
20260507043503 13 195 4.8 11.3 0.00 0.81 0.00 81 1009.9
20260507043003 13 105 4.8 11.3 0.00 0.81 0.00 81 1010.2
20260507042503 13 80 1.6 8.0 0.00 0.81 0.00 83 1010.4
20260507042001 13 87 0.0 8.0 0.00 0.81 0.00 83 1010.2
20260507041503 13 70 0.0 4.8 0.00 0.81 0.00 83 1010.3
20260507041100 13 102 0.0 9.7 0.00 0.81 0.00 81 1009.9
20260507040602 13 266 4.8 9.7 0.00 0.81 0.00 81 1009.6
20260507040059 13 59 0.0 11.3 0.00 0.81 0.81 82 1010.3
20260507035558 13 70 1.6 14.5 0.00 0.81 0.81 82 1010.4
20260507035058 13 106 1.6 14.5 0.00 0.81 0.81 83 1010.4
20260507034558 13 62 1.6 8.0 0.00 0.81 0.81 84 1010.4
20260507034056 13 84 1.6 8.0 0.00 0.81 0.81 85 1010.4
20260507033556 13 67 0.0 6.4 0.00 0.81 0.81 88 1010.1
20260507033057 13 86 0.0 3.2 0.00 0.81 0.81 86 1009.8
20260507032555 13 88 0.0 4.8 0.00 0.81 0.81 86 1009.6
20260507032055 13 89 1.6 6.4 0.08 0.81 0.81 84 1009.6
20260507031553 14 87 1.6 11.3 0.08 0.81 0.81 82 1009.7
20260507031056 14 75 1.6 11.3 0.08 0.81 0.81 83 1009.8
20260507030552 14 69 1.6 6.4 0.08 0.81 0.81 84 1009.9
20260507030054 14 105 0.0 4.8 0.08 0.81 0.81 86 1009.7
20260507025558 14 77 1.6 4.8 0.08 0.81 0.81 86 1009.9
20260507025055 14 56 1.6 8.0 0.08 0.81 0.81 88 1010.1
20260507024602 14 94 1.6 8.0 0.08 0.81 0.81 87 1009.9
20260507024049 14 88 0.0 3.2 0.08 0.81 0.81 88 1009.6
20260507023554 15 115 0.0 3.2 0.08 0.81 0.81 85 1009.6
20260507023046 15 170 1.6 4.8 0.08 0.81 0.81 83 1009.3
20260507022554 15 141 0.0 9.7 0.05 0.79 0.79 82 1009.3
20260507022046 15 111 3.2 9.7 0.00 0.71 0.71 79 1009.2
20260507021546 16 135 3.2 14.5 0.00 0.71 0.71 79 1009.2
20260507021046 16 75 4.8 14.5 0.00 0.71 0.71 80 1009.1
20260507020546 16 124 6.4 14.5 0.00 0.71 0.71 79 1009.4
20260507020103 16 150 3.2 9.7 0.00 0.71 0.71 80 1009.6
20260507015543 16 161 4.8 9.7 0.00 0.71 0.71 80 1009.3
20260507015044 16 141 3.2 9.7 0.00 0.71 0.71 81 1009.2
20260507014553 16 134 1.6 8.0 0.00 0.71 0.71 82 1009.0
20260507014044 16 151 1.6 6.4 0.00 0.71 0.71 83 1008.9
20260507013543 16 142 0.0 8.0 0.00 0.71 0.71 83 1009.0
20260507013048 16 130 1.6 8.0 0.00 0.71 0.71 82 1009.1
20260507012543 16 74 1.6 8.0 0.00 0.71 0.71 84 1009.1
20260507012044 16 96 0.0 3.2 0.00 0.71 0.71 86 1008.9
20260507011543 16 96 0.0 8.0 0.00 0.71 0.71 86 1009.0
20260507011042 16 111 0.0 8.0 0.00 0.71 0.71 84 1008.9
20260507010542 16 74 0.0 4.8 0.00 0.71 0.71 85 1009.2
20260507010043 16 110 0.0 8.0 0.00 0.71 0.71 83 1009.0
20260507005542 16 146 1.6 11.3 0.00 0.71 0.71 83 1009.1
20260507005042 16 84 3.2 11.3 0.00 0.71 0.71 86 1009.2
20260507004544 16 105 4.8 11.3 0.00 0.71 0.71 84 1009.1
20260507004041 16 91 1.6 12.9 0.00 0.71 0.71 86 1008.9
20260507003540 17 94 0.0 12.9 0.03 0.71 0.71 87 1009.0
20260507003042 17 78 0.0 3.2 0.03 0.71 0.71 88 1008.9
20260507002540 17 67 0.0 1.6 0.03 0.71 0.71 88 1008.9
20260507002040 17 80 0.0 6.4 0.03 0.71 0.71 89 1008.8
20260507001544 17 112 1.6 6.4 0.03 0.71 0.71 87 1008.7
20260507001040 17 94 0.0 4.8 0.03 0.71 0.71 88 1008.7
20260507000544 17 95 0.0 4.8 0.03 0.71 0.71 88 1008.6
20260507000040 17 69 0.0 3.2 0.05 0.71 0.71 90 1008.8
20260506235538 17 88 0.0 3.2 0.05 0.71 0.71 90 1008.7
20260506235042 17 75 0.0 3.2 0.08 0.71 0.71 90 1008.6
20260506234540 18 64 1.6 8.0 0.08 0.71 0.71 89 1008.5
20260506234038 18 96 0.0 3.2 0.05 0.71 0.71 90 1008.2
20260506233538 18 79 0.0 3.2 0.05 0.71 0.71 89 1008.2
20260506233039 18 120 1.6 4.8 0.05 0.71 0.71 89 1008.1
20260506232537 18 58 0.0 8.0 0.05 0.71 0.71 88 1008.0
20260506232038 18 53 1.6 8.0 0.05 0.71 0.71 89 1007.8
20260506231548 18 53 0.0 3.2 0.05 0.71 0.71 89 1007.7
20260506231039 18 54 0.0 3.2 0.05 0.71 0.71 88 1007.6
20260506230537 18 54 0.0 4.8 0.05 0.71 0.71 86 1007.7
20260506230051 18 35 1.6 4.8 0.03 0.69 0.69 85 1007.8
20260506225537 19 86 0.0 3.2 0.03 0.69 0.69 83 1007.8
20260506225037 19 88 0.0 3.2 0.00 0.66 0.66 81 1007.5
20260506224538 19 88 1.6 3.2 0.00 0.66 0.66 80 1007.5
20260506224039 20 46 0.0 4.8 0.00 0.66 0.66 80 1007.3
20260506223536 20 51 1.6 9.7 0.00 0.66 0.66 79 1007.2
20260506223049 20 77 3.2 9.7 0.00 0.66 0.66 79 1007.3
20260506222536 20 60 3.2 12.9 0.00 0.66 0.66 79 1007.3
20260506222036 20 80 4.8 12.9 0.00 0.66 0.66 78 1007.1
20260506221536 20 11 4.8 12.9 0.00 0.66 0.66 78 1007.1
20260506221036 20 14 3.2 8.0 0.00 0.66 0.66 78 1007.1
20260506220539 20 41 3.2 11.3 0.00 0.66 0.66 78 1007.1
20260506220037 20 6 6.4 12.9 0.00 0.66 0.66 78 1007.1
20260506215539 20 5 4.8 12.9 0.00 0.66 0.66 77 1007.0
20260506215034 20 23 3.2 9.7 0.00 0.66 0.66 78 1007.1
20260506214534 20 67 3.2 9.7 0.00 0.66 0.66 77 1007.1
20260506214034 20 68 1.6 11.3 0.00 0.66 0.66 77 1007.0
20260506213534 20 355 1.6 8.0 0.00 0.66 0.66 77 1006.9
20260506213042 20 41 3.2 8.0 0.00 0.66 0.66 77 1006.9
20260506212534 20 49 1.6 16.1 0.00 0.66 0.66 78 1007.0
20260506212038 20 275 6.4 16.1 0.00 0.66 0.66 77 1006.9
20260506211546 20 60 4.8 14.5 0.00 0.66 0.66 77 1007.0
20260506211034 20 67 4.8 11.3 0.00 0.66 0.66 78 1006.8
20260506210533 20 56 6.4 11.3 0.00 0.66 0.66 79 1006.9
20260506210035 20 1 6.4 11.3 0.00 0.66 0.66 78 1006.8
20260506205533 20 359 4.8 9.7 0.00 0.66 0.66 79 1006.8
20260506205032 20 63 3.2 19.3 0.00 0.66 0.66 78 1006.8
20260506204534 20 282 1.6 14.5 0.00 0.66 0.66 78 1006.8
20260506204031 20 243 4.8 14.5 0.00 0.66 0.66 77 1006.7
20260506203532 20 211 4.8 14.5 0.00 0.66 0.66 77 1006.7
20260506203032 20 148 6.4 16.1 0.00 0.66 0.66 77 1006.5
20260506202531 20 194 6.4 14.5 0.00 0.66 0.66 77 1006.6
20260506202030 20 145 6.4 16.1 0.00 0.66 0.66 77 1006.4